Location: Unspecified
(0.0000°N, 0.0000°E)
Time: 17:45:45
(UTC+00:00)

Courier 1B Rocket - Pass Details

Date: 19 December 2018
Orbit: 920 x 1202 km, 28.2° (Epoch: 17 June)

Event Time Altitude Azimuth Distance (km) Brightness Sun altitude
Rises 03:58:50 0° 245° (WSW) 3,638 - -26.9°
Reaches altitude 10° 04:01:32 10° 247° (WSW) 2,661 - -26.3°
Exits shadow 04:06:50 59° 278° (W) 1,059 4.8 -25.1°
Maximum altitude 04:07:52 70° 330° (NNW) 977 4.7 -24.9°
Drops below altitude 10° 04:14:03 10° 53° (NE) 2,600 7.5 -23.5°
Sets 04:16:39 0° 55° (NE) 3,550 8.3 -22.9°
